Location: Huntsville
(41.2590°N, 111.7678°W)
Time: 19:47:21
(UTC+00:00)

ISS - Pass Details

Date: 09 December 2021
Orbit: 413 x 422 km, 51.6° (Epoch: 25 January)

Event Time Altitude Azimuth Distance (km) Brightness Sun altitude
Rises 00:37:03 0° 304° (NW) 2,385 0.6 -7.4°
Reaches altitude 10° 00:39:10 10° 303° (WNW) 1,515 -0.4 -7.8°
Maximum altitude 00:42:34 74° 218° (SW) 442 -3.5 -8.3°
Drops below altitude 10° 00:45:55 10° 133° (SE) 1,499 -1.2 -8.9°
Enters shadow 00:49:34 -5° 131° (SE) 3,002 0.3 -9.6°
